Cairns, Australia

7:59 AM AEST on December 12, 2017 (GMT +1000)
Cairns International

Weather History for YBCS - January, 2014

Change the Weather History Date:

Thursday, January 23, 2014

  Actual Average Record
Temperature  
Mean Temperature 80 °F -  
Max Temperature 86 °F 88 °F 91 °F (2000)
Min Temperature 75 °F 74 °F 70 °F (2016)
Cooling Degree Days 16    
Growing Degree Days 30 (Base 50)    
Moisture  
Dew Point 75 °F    
Average Humidity 89    
Maximum Humidity 100    
Minimum Humidity 70    
Precipitation  
Precipitation 2.20 in 0.55 in - ()
Sea Level Pressure  
Sea Level Pressure 29.81 in    
Wind  
Wind Speed 10 mph ()    
Max Wind Speed 15 mph    
Max Gust Speed -    
Visibility 5.3 miles    
Events Rain , Thunderstorm    
Averages and records for this station are not official NWS values.
T = Trace of Precipitation, MM = Missing Value Source: Averaged Metar Reports

Daily Weather History Graph

Daily Weather History Graph

Search for Another Location

Airport or City:

Trip Planner

Search our weather history database for the weather conditions in past years. The results will help you decide how hot, cold, wet, or windy it might be!

Date:

Astronomy

Jan. 23, 2014 Rise Set
Actual Time 6:00 AM AEST 6:57 PM AEST
Civil Twilight 5:36 AM AEST 7:20 PM AEST
Nautical Twilight 5:09 AM AEST 7:47 PM AEST
Astronomical Twilight 4:41 AM AEST 8:15 PM AEST
Moon 11:27 PM AEST (1/23) 11:26 AM AEST (1/23)
Length of Visible Light 13h 43m
Length of Day
12h 56m
Waning Gibbous, 62% of the Moon is Illuminated
Jan 23
Waning Gibbous
Jan 24
Last Quarter
Jan 31
New
Feb 7
First Quarter
Feb 15
Full

Hourly Weather History & Observations

Time (AEST) Temp. Heat Index Dew Point Humidity Pressure Visibility Wind Dir Wind Speed Gust Speed Precip Events Conditions
12:00 AM 77 °F - 74 °F 90% 29.85 in 4 mi ESE 9.2 mph - -   Overcast
12:00 AM 77.0 °F - 75.2 °F 94% 29.83 in 3.1 mi ESE 9.2 mph - N/A Rain Light Rain Showers
12:30 AM 77.0 °F - 73.4 °F 89% 29.83 in 5.6 mi South 8.1 mph - N/A Rain Light Rain Showers
1:00 AM 77 °F - 71 °F 76% 29.83 in - SSW 11.5 mph - -  
1:00 AM 77.0 °F - 71.6 °F 83% 29.80 in 6.2 mi SSW 11.5 mph - N/A   Mostly Cloudy
1:30 AM 75.2 °F - 71.6 °F 89% 29.80 in 6.2 mi South 12.7 mph - N/A   Mostly Cloudy
2:00 AM 77.0 °F - 71.6 °F 83% 29.80 in 6.2 mi South 13.8 mph - N/A   Scattered Clouds
2:30 AM 77.0 °F - 71.6 °F 83% 29.80 in 6.2 mi South 15.0 mph - N/A   Partly Cloudy
3:00 AM 78 °F - 70 °F 70% 29.79 in - South 11.5 mph - -  
3:00 AM 78.8 °F - 69.8 °F 74% 29.77 in 6.2 mi South 11.5 mph - N/A   Mostly Cloudy
3:30 AM 75.2 °F - 73.4 °F 94% 29.80 in 6.2 mi SSE 9.2 mph - N/A   Mostly Cloudy
4:00 AM 78 °F - 71 °F 75% 29.80 in - South 15.0 mph - -  
4:00 AM 78.8 °F - 71.6 °F 78% 29.77 in 6.2 mi South 15.0 mph - N/A   Mostly Cloudy
4:30 AM 77.0 °F - 71.6 °F 83% 29.77 in 6.2 mi South 13.8 mph - N/A   Mostly Cloudy
5:00 AM 77.0 °F - 73.4 °F 89% 29.80 in 6.2 mi South 15.0 mph - N/A   Mostly Cloudy
5:30 AM 77.0 °F - 71.6 °F 83% 29.80 in 6.2 mi South 13.8 mph - N/A   Mostly Cloudy
6:00 AM 78 °F - 72 °F 76% 29.82 in 16 mi South 9.2 mph - - Rain Light Rain Showers
6:00 AM 78.8 °F - 71.6 °F 78% 29.80 in 6.2 mi South 9.2 mph - N/A Rain Light Rain Showers
6:30 AM 77.0 °F - 73.4 °F 89% 29.83 in 6.2 mi South 10.4 mph - N/A Rain Light Rain Showers
7:00 AM 77 °F - 73 °F 83% 29.84 in - South 6.9 mph - -  
7:00 AM 77.0 °F - 73.4 °F 89% 29.83 in 6.2 mi South 6.9 mph - N/A Rain Light Rain Showers
7:30 AM 78.8 °F - 73.4 °F 83% 29.83 in 6.2 mi South 8.1 mph - N/A   Mostly Cloudy
8:00 AM 80.6 °F 85.4 °F 73.4 °F 79% 29.83 in 6.2 mi South 10.4 mph - N/A   Scattered Clouds
8:30 AM 82.4 °F 88.2 °F 73.4 °F 74% 29.83 in 6.2 mi South 11.5 mph - N/A   Mostly Cloudy
9:00 AM 81 °F - 74 °F 75% 29.85 in 4 mi SE 9.2 mph - - Rain Light Rain Showers
9:00 AM 80.6 °F 86.2 °F 75.2 °F 84% 29.83 in 4.3 mi SE 9.2 mph - N/A Rain Light Rain Showers
9:22 AM 80.6 °F 86.2 °F 75.2 °F 84% 29.83 in 6.2 mi SSE 5.8 mph - N/A   Mostly Cloudy
9:30 AM 82.4 °F 89.5 °F 75.2 °F 79% 29.83 in 6.2 mi South 8.1 mph - N/A   Mostly Cloudy
10:00 AM 82 °F - 76 °F 78% 29.86 in - SSE 6.9 mph - -  
10:00 AM 82.4 °F 90.9 °F 77.0 °F 84% 29.83 in 6.2 mi SSE 6.9 mph - N/A Rain Light Rain Showers
10:13 AM 80.6 °F 87.1 °F 77.0 °F 89% 29.83 in 6.2 mi SSE 9.2 mph - N/A Rain Light Rain Showers
10:29 AM 82.4 °F 92.4 °F 78.8 °F 89% 29.83 in 6.2 mi SE 9.2 mph - N/A   Mostly Cloudy
11:00 AM 86.0 °F 96.9 °F 77.0 °F 74% 29.83 in 6.2 mi ESE 8.1 mph - N/A   Mostly Cloudy
11:30 AM 82.4 °F 89.5 °F 75.2 °F 79% 29.83 in 4.3 mi South 11.5 mph - N/A Rain Light Rain Showers
11:33 AM 82.4 °F 89.5 °F 75.2 °F 79% 29.83 in 3.1 mi South 11.5 mph - N/A Rain Rain Showers
12:00 PM 80 °F - 77 °F 89% 29.84 in 7 mi South 10.4 mph - - Rain Light Rain Showers
12:00 PM 78.8 °F - 77.0 °F 94% 29.83 in 6.2 mi South 10.4 mph - N/A Rain Light Rain Showers
12:21 PM 78.8 °F - 77.0 °F 94% 29.83 in 3.1 mi South 9.2 mph - N/A Rain Rain Showers
12:30 PM 78.8 °F - 77.0 °F 94% 29.83 in 3.1 mi SSE 8.1 mph - N/A Rain Rain Showers
1:00 PM 78 °F - 77 °F 97% 29.83 in - South 8.1 mph - -  
1:00 PM 78.8 °F - 77.0 °F 94% 29.80 in 4.3 mi South 8.1 mph - N/A Rain Light Rain Showers
1:30 PM 78.8 °F - 77.0 °F 94% 29.80 in 6.2 mi South 9.2 mph - N/A   Mostly Cloudy
1:48 PM 78.8 °F - 77.0 °F 94% 29.80 in 3.1 mi South 11.5 mph - N/A Rain Light Rain Showers
2:00 PM 78.8 °F - 77.0 °F 94% 29.80 in 3.1 mi South 11.5 mph - N/A Rain Light Rain Showers
2:11 PM 77.0 °F - 77.0 °F 100% 29.80 in 3.1 mi SSE 10.4 mph - N/A Rain , Thunderstorm Light Thunderstorms and Rain
2:30 PM 77.0 °F - 77.0 °F 100% 29.80 in 3.1 mi South 11.5 mph - N/A Rain , Thunderstorm Thunderstorms and Rain
3:00 PM 78 °F - 76 °F 91% 29.80 in 3 mi South 10.4 mph - - Rain , Thunderstorm Thunderstorms and Rain
3:00 PM 77.0 °F - 75.2 °F 94% 29.80 in 3.1 mi South 10.4 mph - N/A Rain , Thunderstorm Light Rain Showers
3:30 PM 77.0 °F - 75.2 °F 94% 29.80 in 4.3 mi South 8.1 mph - N/A Rain Light Rain Showers
4:00 PM 77 °F - 76 °F 95% 29.78 in - SSE 12.7 mph - -  
4:00 PM 77.0 °F - 75.2 °F 94% 29.77 in 4.3 mi SSE 12.7 mph - N/A Rain Light Rain Showers
4:30 PM 77.0 °F - 75.2 °F 94% 29.77 in 6.2 mi SSE 6.9 mph - N/A Rain Light Rain Showers
5:00 PM 77.0 °F - 75.2 °F 94% 29.77 in 5.0 mi SSE 8.1 mph - N/A Rain Light Rain Showers
5:13 PM 77.0 °F - 77.0 °F 100% 29.77 in 4.3 mi SSE 8.1 mph - N/A Rain Light Rain Showers
5:30 PM 77.0 °F - 77.0 °F 100% 29.77 in 4.3 mi SSE 8.1 mph - N/A Rain Rain
6:00 PM 77 °F - 76 °F 95% 29.80 in - South 8.1 mph - -   Overcast
6:00 PM 77.0 °F - 75.2 °F 94% 29.80 in 4.3 mi South 8.1 mph - N/A Rain Rain
6:30 PM 77.0 °F - 75.2 °F 94% 29.80 in 5.6 mi South 5.8 mph - N/A Rain Light Rain
6:47 PM 77.0 °F - 75.2 °F 94% 29.80 in 5.6 mi SSW 4.6 mph - N/A   Unknown
7:00 PM 77 °F - 76 °F 94% 29.82 in - South 6.9 mph - -  
7:00 PM 77.0 °F - 75.2 °F 94% 29.80 in 6.2 mi South 6.9 mph - N/A Rain , Thunderstorm Light Rain Showers
7:30 PM 77.0 °F - 75.2 °F 94% 29.80 in 5.6 mi South 10.4 mph - N/A Rain Light Rain Showers
8:00 PM 77.0 °F - 75.2 °F 94% 29.80 in 6.2 mi South 9.2 mph - N/A   Mostly Cloudy
8:30 PM 77.0 °F - 75.2 °F 94% 29.80 in 6.2 mi SSE 10.4 mph - N/A Rain Light Rain Showers
9:00 PM 77 °F - 75 °F 93% 29.83 in - South 11.5 mph - -  
9:00 PM 77.0 °F - 75.2 °F 94% 29.83 in 5.0 mi South 11.5 mph - N/A Rain Light Rain Showers
9:25 PM 77.0 °F - 75.2 °F 94% 29.83 in 3.1 mi SSE 13.8 mph - N/A Rain Light Rain Showers
9:30 PM 77.0 °F - 75.2 °F 94% 29.83 in 3.1 mi SSE 13.8 mph - N/A Rain Light Rain Showers
10:00 PM 77 °F - 75 °F 92% 29.86 in - South 9.2 mph - -  
10:00 PM 77.0 °F - 75.2 °F 94% 29.86 in 3.7 mi South 9.2 mph - N/A Rain Light Rain Showers
10:30 PM 77.0 °F - 75.2 °F 94% 29.86 in 3.1 mi SSE 9.2 mph - N/A Rain Light Rain Showers
11:00 PM 77.0 °F - 75.2 °F 94% 29.83 in 5.0 mi South 8.1 mph - N/A Rain Light Rain Showers
11:30 PM 77.0 °F - 75.2 °F 94% 29.83 in 5.6 mi South 8.1 mph - N/A   Mostly Cloudy